Vorticity
6 5 5 3 4 8 10 5 7 2 3 5 4 6 6 5 3 6 5 2 3 2 -1 1 -1 -2 4 -1 2 4 6 6 4 3 2 4 3 3 4 5 4 6 5 4 8 7 7 5 7
13 13 11 9 6 8 9 9 8 7 5 5 3 3 3 2 6 4 3 -0 6 13 7 1 1 4 3 1 5 3 3 6 9 3 3 4 3 3 4 4 4 5 5 6 8 6 8 6 8
5 7 10 10 5 3 5 9 7 4 3 5 6 6 3 2 3 4 2 3 4 7 6 8 6 6 2 5 6 6 2 2 11 8 4 3 2 3 4 4 5 5 5 6 10 5 9 8 6
1 2 6 7 13 13 9 9 8 5 6 5 5 7 9 3 5 5 6 4 2 4 3 4 5 3 2 4 2 7 6 1 6 13 5 5 2 3 2 5 3 6 5 8 8 8 6 6 8
2 4 4 4 7 14 12 9 4 5 7 5 2 6 7 5 8 5 -0 2 1 0 4 1 7 5 1 5 2 1 6 7 2 5 10 7 2 3 2 4 4 6 4 6 10 8 6 9 8
2 1 7 3 2 7 12 8 8 7 7 5 3 8 8 4 6 9 4 1 -0 -1 3 5 5 3 4 1 8 11 9 7 3 2 10 7 4 3 4 2 4 7 5 7 9 5 8 5 2
2 5 7 3 2 10 14 9 11 9 7 6 4 5 6 7 7 5 10 6 6 4 3 6 4 4 5 12 4 4 6 7 8 4 6 8 7 4 5 2 3 7 6 5 4 0 6 6 4
4 6 5 6 2 10 11 5 1 2 4 6 4 0 8 6 7 6 7 6 7 6 6 7 4 4 1 -1 9 7 3 6 6 5 5 11 5 6 5 2 5 4 5 4 7 3 6 8 8
4 4 6 3 5 5 6 4 8 1 7 4 9 6 6 5 3 4 7 10 5 3 3 7 6 6 7 9 13 16 4 12 12 8 8 11 5 7 6 4 4 3 3 3 3 4 4 6 10
9 5 8 6 7 6 6 9 12 5 6 11 9 3 5 15 6 4 4 7 2 7 5 4 8 9 7 9 -1 1 11 10 3 5 7 9 8 7 7 4 5 3 4 3 4 3 4 7 8
-3 2 8 8 7 6 9 12 3 7 11 9 8 6 5 7 10 7 6 6 7 5 6 3 5 13 6 16 12 2 8 7 7 2 7 7 9 8 6 7 5 3 3 3 2 2 3 6 10
22 18 12 11 10 10 8 -1 8 5 9 15 9 11 7 6 5 6 5 5 2 5 3 8 1 2 6 5 9 4 5 8 14 7 6 9 6 10 6 7 3 4 2 2 2 1 3 6 3
2 17 16 11 11 8 6 10 4 8 9 4 8 8 10 8 5 6 5 5 7 1 2 -1 3 4 -1 1 5 2 3 19 5 9 5 7 7 8 7 6 5 3 3 2 3 2 2 7 12
8 5 6 9 5 6 4 8 5 18 7 9 7 9 9 10 10 7 6 4 4 5 1 -4 6 3 11 5 -6 -2 10 16 7 8 1 7 5 8 5 6 4 3 3 3 3 2 6 14 21
6 7 6 7 9 7 8 9 7 6 3 4 4 4 6 12 14 13 8 8 4 5 8 4 -0 6 4 -5 -0 -2 13 6 11 15 7 4 3 6 6 5 4 4 3 3 3 3 6 22 14
8 11 13 11 8 8 6 5 3 7 4 5 4 3 6 4 2 8 14 8 14 7 5 7 4 4 6 2 8 12 12 3 6 6 13 7 5 6 6 4 4 3 2 2 3 7 22 10 3
10 6 6 3 6 7 4 6 6 4 7 4 5 6 6 5 3 7 12 11 11 10 7 7 9 10 5 -0 6 4 10 6 5 10 9 8 5 6 6 3 4 3 3 4 3 0 24 3 4
6 9 8 9 7 5 8 15 1 6 4 7 7 5 5 4 2 3 2 6 9 11 6 8 8 10 10 10 11 5 8 9 4 10 10 7 5 5 6 3 3 3 2 6 0 2 19 1 7
9 6 9 12 6 6 4 5 10 -1 4 4 6 6 4 2 4 3 4 4 7 6 4 6 8 9 8 9 8 10 19 12 16 7 9 8 6 8 6 4 4 4 2 4 1 7 14 1 8
8 7 8 7 4 5 5 8 10 9 -0 2 1 3 2 1 2 1 0 2 5 11 3 2 6 8 13 6 13 4 1 7 18 7 10 6 5 8 7 7 4 4 3 5 2 7 13 2 8
6 6 5 9 4 6 5 9 1 2 2 6 6 3 1 -3 -0 6 9 10 13 3 13 0 3 7 8 12 5 4 6 3 11 5 13 7 9 7 8 5 3 1 3 5 5 6 14 3 8
7 6 5 7 5 4 4 6 -2 2 3 0 3 0 9 16 24 36 43 45 28 27 22 3 7 15 10 8 9 9 12 1 15 10 14 10 9 5 6 8 4 0 1 3 6 7 14 4 8
5 6 6 5 4 0 9 4 7 1 5 10 23 37 56 37 46 43 33 36 20 19 8 25 6 3 10 8 16 11 6 -1 18 6 12 10 10 9 11 4 1 3 4 4 5 6 14 5 10
4 4 4 1 1 -1 0 5 -5 20 32 61 53 17 14 27 30 34 39 35 22 20 17 23 13 11 9 13 10 12 3 31 12 1 22 10 7 7 10 1 1 5 3 8 5 6 15 4 10
5 3 3 2 1 6 16 26 35 47 63 10 4 5 25 19 21 24 16 24 21 17 22 17 14 12 12 12 12 10 23 9 11 15 18 11 12 9 9 4 4 6 3 8 6 9 14 5 13
1 8 10 20 18 19 29 27 33 37 10 9 11 25 17 14 20 14 16 18 21 18 10 8 13 11 19 14 6 4 3 -1 10 11 16 13 12 8 3 3 6 7 4 6 7 13 9 7 15
5 11 6 34 63 51 43 17 25 -18 29 16 3 18 8 9 22 16 22 -12 24 19 34 25 20 31 8 16 17 14 10 -2 10 8 11 13 4 2 3 5 7 9 4 8 11 12 5 13 10
26 34 38 31 31 23 13 23 -14 8 -11 1 29 22 9 24 26 26 43 32 -24 26 26 19 22 13 10 18 18 13 7 6 7 5 7 11 4 2 4 3 9 4 7 12 9 9 4 7 10
61 37 34 -0 8 15 29 8 -17 -10 -0 20 21 19 9 -0 28 30 52 -8 23 -3 12 31 14 23 39 8 15 11 13 11 7 4 6 10 9 -2 10 6 8 5 9 9 6 12 6 3 8
9 19 -2 12 11 -1 17 -2 -10 13 15 10 6 31 12 -14 -15 -11 17 34 12 26 27 11 12 12 10 -0 5 10 7 7 11 8 4 9 -1 20 7 6 6 7 12 4 7 7 8 14 7
Height
5826 5826 5826 5826 5827 5826 5831 5835 5833 5831 5830 5832 5833 5835 5836 5837 5840 5845 5844 5843 5844 5843 5842 5843 5843 5845 5846 5846 5845 5845 5846 5847 5846 5846 5846 5846 5846 5845 5843 5842 5840 5839 5838 5837 5835 5834 5833 5832 5832
5821 5821 5821 5820 5820 5821 5827 5830 5829 5825 5826 5829 5830 5830 5831 5832 5835 5838 5840 5840 5840 5839 5839 5838 5839 5841 5842 5843 5842 5842 5842 5843 5843 5844 5843 5843 5843 5843 5841 5839 5838 5836 5836 5834 5833 5831 5831 5830 5829
5817 5817 5816 5815 5815 5818 5823 5825 5822 5820 5820 5823 5825 5824 5825 5827 5828 5831 5833 5835 5835 5835 5835 5835 5835 5836 5837 5839 5840 5839 5839 5838 5839 5840 5840 5839 5839 5839 5838 5835 5834 5834 5832 5832 5830 5829 5828 5828 5826
5812 5812 5812 5809 5811 5815 5819 5819 5817 5818 5817 5817 5818 5821 5821 5821 5824 5826 5826 5828 5828 5829 5831 5832 5831 5831 5832 5833 5835 5835 5835 5834 5834 5835 5836 5835 5835 5835 5834 5832 5831 5830 5829 5829 5828 5826 5826 5825 5824
5806 5806 5805 5804 5807 5810 5811 5811 5810 5812 5813 5813 5812 5815 5815 5817 5819 5822 5822 5822 5823 5825 5826 5826 5827 5827 5827 5828 5829 5829 5830 5830 5830 5830 5831 5831 5831 5830 5830 5829 5828 5827 5826 5826 5826 5824 5824 5822 5822
5800 5800 5799 5799 5799 5802 5804 5804 5803 5804 5805 5807 5805 5809 5811 5808 5810 5811 5815 5816 5818 5819 5820 5821 5821 5821 5821 5822 5824 5824 5825 5825 5824 5825 5826 5826 5826 5826 5826 5825 5824 5823 5823 5823 5823 5822 5821 5820 5819
5793 5793 5792 5792 5793 5795 5797 5797 5795 5794 5796 5798 5800 5801 5804 5805 5805 5807 5808 5810 5812 5813 5814 5814 5815 5815 5815 5817 5818 5819 5819 5820 5819 5819 5820 5821 5821 5821 5822 5821 5820 5820 5820 5820 5820 5819 5818 5817 5816
5785 5785 5785 5786 5786 5788 5788 5786 5785 5785 5786 5789 5793 5792 5797 5797 5799 5800 5802 5804 5805 5808 5809 5809 5809 5809 5810 5810 5811 5812 5814 5814 5815 5813 5814 5816 5816 5817 5817 5817 5816 5816 5816 5815 5815 5815 5815 5815 5813
5776 5777 5777 5778 5777 5777 5777 5778 5777 5778 5779 5779 5781 5786 5788 5790 5791 5791 5793 5794 5797 5800 5802 5803 5802 5802 5803 5803 5804 5805 5807 5808 5809 5808 5809 5811 5811 5812 5812 5812 5813 5812 5811 5811 5810 5811 5812 5812 5810
5768 5768 5768 5768 5767 5768 5769 5769 5770 5769 5770 5772 5775 5777 5779 5780 5782 5783 5785 5786 5787 5789 5794 5795 5796 5795 5796 5797 5798 5800 5801 5803 5804 5803 5803 5804 5806 5807 5807 5807 5808 5808 5807 5807 5807 5806 5806 5807 5806
5757 5758 5759 5758 5758 5758 5759 5760 5759 5760 5762 5763 5765 5767 5769 5771 5773 5775 5776 5778 5779 5780 5783 5786 5787 5789 5789 5791 5793 5794 5795 5796 5797 5798 5798 5798 5800 5801 5801 5802 5802 5803 5803 5803 5803 5802 5801 5801 5801
5747 5749 5748 5747 5746 5748 5750 5749 5752 5751 5752 5754 5754 5757 5759 5760 5762 5765 5766 5767 5768 5770 5773 5777 5779 5780 5782 5783 5785 5786 5788 5789 5791 5791 5792 5792 5794 5795 5795 5796 5797 5797 5797 5798 5798 5797 5796 5795 5795
5737 5739 5737 5736 5737 5737 5739 5741 5740 5741 5742 5741 5743 5745 5748 5750 5752 5754 5756 5757 5758 5760 5763 5766 5770 5771 5773 5774 5777 5777 5779 5780 5782 5784 5785 5787 5787 5788 5789 5790 5790 5791 5792 5793 5792 5791 5790 5788 5788
5727 5727 5728 5727 5726 5728 5731 5731 5730 5734 5731 5732 5731 5734 5737 5738 5740 5740 5742 5744 5746 5750 5752 5755 5759 5763 5764 5767 5770 5770 5770 5772 5773 5775 5777 5780 5780 5780 5782 5783 5784 5785 5785 5786 5786 5785 5783 5781 5779
5717 5717 5716 5715 5716 5717 5719 5722 5720 5721 5723 5725 5724 5726 5729 5730 5731 5731 5731 5734 5734 5736 5741 5744 5746 5751 5755 5755 5759 5761 5763 5763 5764 5767 5768 5771 5774 5774 5775 5776 5777 5778 5778 5780 5778 5777 5775 5773 5773
5705 5706 5706 5705 5704 5704 5708 5714 5714 5712 5712 5713 5713 5716 5717 5719 5721 5721 5722 5723 5723 5724 5727 5729 5734 5739 5744 5747 5751 5752 5754 5753 5754 5757 5759 5762 5765 5768 5768 5769 5770 5771 5772 5773 5773 5771 5770 5767 5767
5694 5694 5692 5692 5692 5693 5694 5703 5702 5702 5700 5701 5702 5702 5703 5705 5709 5710 5713 5714 5713 5712 5713 5717 5718 5725 5731 5738 5740 5742 5744 5745 5747 5749 5752 5754 5758 5760 5761 5762 5763 5765 5766 5767 5767 5765 5764 5763 5763
5681 5680 5681 5680 5681 5680 5679 5688 5697 5685 5683 5689 5690 5689 5688 5691 5698 5699 5699 5698 5698 5698 5699 5704 5707 5711 5716 5723 5729 5731 5732 5736 5740 5741 5744 5746 5749 5753 5754 5755 5757 5758 5759 5760 5761 5760 5758 5758 5757
5668 5667 5668 5670 5666 5665 5665 5671 5682 5678 5669 5670 5671 5671 5672 5674 5679 5677 5681 5682 5681 5682 5685 5690 5693 5698 5700 5707 5717 5718 5724 5728 5730 5732 5734 5737 5740 5743 5747 5749 5749 5750 5752 5753 5755 5754 5752 5753 5751
5656 5655 5658 5659 5654 5652 5652 5657 5662 5663 5653 5653 5655 5653 5649 5653 5655 5656 5658 5663 5665 5666 5669 5676 5682 5684 5688 5692 5701 5707 5711 5715 5719 5720 5723 5725 5729 5735 5738 5741 5742 5744 5745 5747 5749 5747 5747 5747 5746
5644 5643 5645 5645 5642 5642 5637 5642 5650 5646 5645 5634 5633 5627 5627 5627 5630 5631 5634 5640 5645 5644 5650 5659 5668 5672 5674 5681 5685 5693 5697 5702 5706 5710 5715 5718 5723 5726 5730 5732 5735 5736 5739 5741 5742 5740 5741 5741 5741
5632 5634 5631 5633 5630 5628 5624 5614 5639 5628 5627 5619 5611 5608 5602 5597 5597 5598 5600 5607 5616 5620 5628 5640 5651 5659 5662 5666 5673 5680 5689 5694 5699 5702 5706 5709 5712 5717 5721 5725 5725 5729 5731 5734 5735 5734 5734 5735 5735
5621 5621 5619 5618 5616 5610 5626 5598 5615 5609 5608 5597 5588 5582 5576 5574 5573 5572 5574 5582 5593 5603 5610 5621 5633 5643 5648 5652 5663 5669 5676 5683 5687 5691 5695 5698 5702 5708 5712 5715 5717 5720 5723 5725 5727 5726 5727 5727 5728
5610 5607 5606 5603 5600 5594 5606 5592 5599 5582 5583 5579 5574 5570 5567 5563 5562 5563 5566 5572 5581 5590 5599 5608 5617 5627 5633 5642 5652 5659 5666 5672 5676 5681 5685 5689 5695 5699 5703 5707 5709 5711 5715 5718 5718 5718 5719 5720 5720
5599 5593 5590 5590 5585 5582 5581 5573 5569 5570 5566 5568 5567 5564 5560 5558 5557 5558 5562 5566 5574 5582 5591 5599 5606 5613 5623 5633 5642 5650 5656 5661 5666 5671 5675 5680 5686 5690 5696 5698 5701 5703 5707 5709 5709 5710 5711 5712 5713
5588 5580 5576 5571 5571 5568 5569 5562 5563 5561 5562 5560 5558 5555 5555 5553 5554 5556 5560 5564 5570 5576 5584 5591 5596 5606 5616 5624 5633 5642 5648 5652 5655 5660 5664 5669 5676 5681 5684 5689 5693 5695 5698 5699 5700 5701 5703 5704 5705
5575 5565 5563 5556 5561 5555 5560 5559 5560 5561 5559 5555 5552 5550 5550 5550 5551 5555 5557 5560 5565 5570 5575 5582 5588 5597 5607 5615 5624 5633 5639 5642 5646 5650 5656 5663 5667 5673 5678 5681 5683 5685 5688 5689 5691 5692 5694 5695 5696
5559 5553 5552 5551 5552 5552 5555 5555 5557 5557 5557 5552 5547 5546 5547 5547 5547 5549 5550 5553 5557 5562 5566 5573 5581 5591 5599 5606 5615 5623 5627 5633 5636 5643 5650 5658 5663 5667 5669 5672 5675 5678 5678 5680 5681 5683 5685 5686 5687
5548 5546 5548 5550 5552 5551 5552 5555 5555 5555 5553 5549 5544 5543 5544 5544 5545 5548 5549 5551 5554 5560 5565 5569 5576 5585 5591 5598 5607 5614 5620 5623 5631 5638 5645 5651 5654 5656 5659 5663 5666 5667 5668 5670 5672 5674 5675 5677 5677
5543 5545 5546 5548 5552 5552 5551 5553 5553 5553 5550 5547 5544 5542 5543 5545 5545 5547 5549 5551 5556 5559 5562 5566 5571 5580 5588 5594 5599 5605 5610 5618 5626 5631 5635 5640 5644 5646 5650 5653 5655 5657 5660 5662 5664 5665 5666 5667 5668